Location: Raleigh
(35.7720°N, 78.6390°W)
Time: 00:06:24
(UTC-05:00)

Amateur Radio Satellites - All Passes

Search period start: 22 February 2017 23:36
Search period end: 23 February 2017 23:36
Location: Raleigh, 35.7720°N, 78.6390°W

Satellite Date Start Highest point End Downlink Frequencies (MHz)
Time Altitude Azimuth
BUGSAT 1 22 Feb 23:40:06 23:41:50 12° 93° (E) 23:43:34 437.445
SO-50 22 Feb 23:42:40 23:46:47 30° 307° (NW) 23:50:53 436.795
ESTCUBE 1 22 Feb 23:43:43 23:47:38 29° 263° (W) 23:51:35 437.505/2401.250
JUGNU 22 Feb 23:55:15 23:58:49 16° 179° (S) 00:02:25 437.505
50 SAT 22 Feb 23:57:38 00:01:09 86° 255° (WSW) 00:04:40 437.505
DUCHIFAT 1 23 Feb 00:04:20 00:08:37 80° 102° (ESE) 00:12:52 145.980
EO-79 23 Feb 00:11:43 00:15:59 69° 283° (WNW) 00:20:13 145.935-145.965
VELOX 1 23 Feb 00:21:38 00:25:34 33° 262° (W) 00:29:32 145.980
DX 1 23 Feb 00:22:17 00:26:35 77° 257° (WSW) 00:30:56 434.975-435.025
POLYITAN 1 23 Feb 00:28:28 00:32:33 42° 287° (WNW) 00:36:36 437.675
RS-15 23 Feb 00:29:17 00:38:06 21° 27° (NNE) 00:46:44 29.354- 29.394
NANOSAT C BR1 23 Feb 00:30:44 00:34:48 43° 286° (WNW) 00:38:50 145.865
AIST 2D 23 Feb 00:31:17 00:33:36 17° 290° (WNW) 00:35:56 435.315
QB50P2 23 Feb 00:31:25 00:35:22 36° 287° (WNW) 00:39:16 145.880/145.840
O/OREOS (USA 219) 23 Feb 00:35:56 00:38:19 14° 302° (WNW) 00:40:43 437.305
PCSat 23 Feb 00:36:39 00:38:20 11° 45° (NE) 00:40:01 145.827
UKube-1 23 Feb 00:40:16 00:44:31 67° 257° (WSW) 00:48:49 .
FO-29 23 Feb 00:45:18 00:50:27 20° 301° (WNW) 00:55:21 435.910
SRMSAT 23 Feb 00:49:51 00:52:39 13° 170° (S) 00:55:27 437.500
SPROUT 23 Feb 00:52:28 00:55:24 18° 266° (W) 00:58:23 437.525
ITUPSAT 1 23 Feb 01:12:54 01:15:58 17° 66° (ENE) 01:19:03 437.325
BUGSAT 1 23 Feb 01:13:20 01:17:23 46° 287° (WNW) 01:21:27 437.445
BEESAT 23 Feb 01:20:54 01:24:26 21° 67° (ENE) 01:27:59 436.000
Oscar 19 23 Feb 01:35:35 01:40:41 67° 102° (ESE) 01:45:46 437.125/150
JUGNU 23 Feb 01:44:11 01:47:04 14° 189° (S) 01:49:56 437.505
Gurwin Techsat 1B 23 Feb 01:57:49 02:03:05 59° 101° (E) 02:08:18 435.225
AO-7 23 Feb 02:06:24 02:08:39 11° 90° (E) 02:10:53 .
MOZHAYETS 4 23 Feb 02:06:47 02:10:11 21° 68° (ENE) 02:13:37
ITAMSAT 1 23 Feb 02:07:22 02:07:35 10° 91° (E) 02:07:48 435.822/435.867
PCSat 23 Feb 02:17:10 02:22:37 78° 64° (ENE) 02:28:02 145.827
SRMSAT 23 Feb 02:37:20 02:41:04 17° 180° (S) 02:44:47 437.500
RS-15 23 Feb 02:41:35 02:53:49 63° 55° (NE) 03:05:28 29.354- 29.394
ITUPSAT 1 23 Feb 02:48:49 02:53:24 45° 260° (W) 02:58:02 437.325
BEESAT 23 Feb 02:57:35 03:01:56 35° 262° (W) 03:06:21 436.000
KKS-1 23 Feb 02:58:18 03:01:19 18° 67° (ENE) 03:04:22 437.445
CUBESAT XI-V 23 Feb 03:00:45 03:02:17 12° 64° (ENE) 03:03:50 437.345
Oscar 19 23 Feb 03:17:01 03:19:23 13° 297° (WNW) 03:21:45 437.125/150
Gurwin Techsat 1B 23 Feb 03:39:22 03:42:29 16° 296° (WNW) 03:45:37 435.225
STARS 23 Feb 03:39:36 03:43:01 23° 69° (ENE) 03:46:26 437.465
ITAMSAT 1 23 Feb 03:42:18 03:47:34 79° 284° (WNW) 03:52:46 435.822/435.867
MOZHAYETS 4 23 Feb 03:42:54 03:47:05 34° 263° (W) 03:51:19
AO-85 23 Feb 03:46:01 03:49:10 18° 111° (ESE) 03:52:11 145.980
AO-7 23 Feb 03:54:12 04:02:32 76° 106° (ESE) 04:10:48 .
PCSat 23 Feb 04:03:37 04:05:15 11° 258° (WSW) 04:06:54 145.827
SRMSAT 23 Feb 04:26:37 04:29:28 14° 190° (S) 04:32:19 437.500
KKS-1 23 Feb 04:33:34 04:37:36 35° 262° (W) 04:41:39 437.445
CUBESAT XI-V 23 Feb 04:34:26 04:39:04 65° 259° (W) 04:43:43 437.345
RS-15 23 Feb 04:55:05 05:05:30 35° 256° (WSW) 05:15:33 29.354- 29.394
M-CUBED/EXP-1 PRIME 23 Feb 05:01:31 05:04:36 34° 256° (WSW) 05:07:38 437.505
STARS 23 Feb 05:15:31 05:19:11 27° 263° (W) 05:22:55 437.465
LilacSat-2 23 Feb 05:20:07 05:21:26 11° 92° (E) 05:22:44 437.200
AO-85 23 Feb 05:25:00 05:29:20 40° 303° (WNW) 05:33:23 145.980
NUDT-PHONESAT 23 Feb 05:28:03 05:28:56 11° 92° (E) 05:29:48 437.300
STRAND 1 23 Feb 05:34:41 05:37:25 15° 63° (ENE) 05:40:09 437.568
AO-7 23 Feb 05:48:25 05:54:25 23° 304° (WNW) 06:00:26 .
CUTE-I 23 Feb 06:10:36 06:15:45 46° 99° (E) 06:20:53 437.470
KAITUO 1B 23 Feb 06:21:12 06:24:56 58° 100° (E) 06:28:36 145.475/437.950
XW-2F 23 Feb 06:21:30 06:25:19 73° 102° (ESE) 06:29:04 145.980 - 146.000
DOVE 4 23 Feb 06:23:59 06:28:41 85° 102° (ESE) 06:33:41 437.250
XW-2D 23 Feb 06:24:30 06:28:21 85° 104° (ESE) 06:32:08 145.860 - 145.880
XW-2B 23 Feb 06:29:29 06:33:20 85° 280° (W) 06:37:07 145.730 - 145.750
BEESAT 3 23 Feb 06:30:21 06:34:07 53° 116° (ESE) 06:37:58 437.485
SO-50 23 Feb 06:37:29 06:39:31 13° 45° (NE) 06:41:32 436.795
XW-2C 23 Feb 06:38:03 06:41:51 63° 283° (WNW) 06:45:36 145.795 - 145.815
LilacSat-2 23 Feb 06:52:16 06:55:52 39° 286° (WNW) 06:59:26 437.200
NUDT-PHONESAT 23 Feb 06:59:29 07:03:02 39° 286° (WNW) 07:06:32 437.300
BEESAT 2 23 Feb 07:02:50 07:06:37 48° 116° (ESE) 07:10:28 435.950
STRAND 1 23 Feb 07:10:57 07:16:00 61° 258° (WSW) 07:21:07 437.568
HO-68 23 Feb 07:14:57 07:21:32 38° 98° (E) 07:28:03 435.675
XW-2A 23 Feb 07:19:36 07:23:00 54° 100° (E) 07:26:23 145.665 - 145.685
AAUSAT CUBESAT 2 23 Feb 07:26:45 07:28:03 11° 92° (E) 07:29:21 437.432
SEEDS 23 Feb 07:27:51 07:31:23 26° 96° (E) 07:34:54 437.485
CUTE-I 23 Feb 07:51:33 07:55:24 20° 295° (WNW) 07:59:16 437.470
CUBEBUG 2 23 Feb 07:52:34 07:57:00 37° 97° (E) 08:01:22 437.445
CUTE 1.7 + AOD 2 23 Feb 08:00:46 08:04:59 74° 283° (WNW) 08:09:09 437.475
ISS 23 Feb 08:06:07 08:09:14 41° 133° (SE) 08:12:22 437.550
BEESAT 3 23 Feb 08:10:14 08:12:02 13° 313° (NW) 08:13:52 437.485
SO-50 23 Feb 08:15:59 08:20:29 73° 242° (WSW) 08:24:55 436.795
AO-73 23 Feb 08:16:44 08:20:13 21° 94° (E) 08:23:38 145.935
Oscar 11 23 Feb 08:26:36 08:30:03 23° 95° (E) 08:33:27 .
PRISM 23 Feb 08:31:34 08:35:21 37° 72° (ENE) 08:39:08 437.425
UWE-3 23 Feb 08:35:11 08:39:52 69° 101° (ESE) 08:44:26 435.000/436.395/437.385
Tancredo 1 23 Feb 08:37:38 08:40:53 77° 317° (NW) 08:44:09 437.200
BEESAT 2 23 Feb 08:42:31 08:44:39 14° 312° (NW) 08:46:49 435.950
AAUSAT CUBESAT 2 23 Feb 08:59:48 09:03:44 45° 286° (WNW) 09:07:38 437.432
ZACube-1 23 Feb 09:02:00 09:06:35 81° 101° (ESE) 09:11:04 437.345
HO-68 23 Feb 09:02:44 09:09:07 36° 294° (WNW) 09:15:28 435.675
SEEDS 23 Feb 09:03:47 09:06:54 21° 291° (WNW) 09:09:59 437.485
O/OREOS (USA 219) 23 Feb 09:06:56 09:11:27 60° 68° (ENE) 09:15:59 437.305
FO-29 23 Feb 09:07:23 09:13:07 28° 63° (ENE) 09:19:16 435.910
DELFI C3 23 Feb 09:19:49 09:23:11 27° 97° (E) 09:26:31 145.870
CUBEBUG 2 23 Feb 09:29:52 09:33:17 20° 292° (WNW) 09:36:41 437.445
UNISAT 6 23 Feb 09:31:19 09:35:44 72° 76° (ENE) 09:40:18 437.425
TIGRISAT 23 Feb 09:32:25 09:36:49 68° 76° (ENE) 09:41:22 435.000
ISS 23 Feb 09:43:19 09:45:49 20° 329° (NNW) 09:48:21 437.550
AO-73 23 Feb 09:52:27 09:56:25 30° 289° (WNW) 10:00:19 145.935
Oscar 11 23 Feb 10:02:31 10:06:05 26° 290° (WNW) 10:09:38 .
PRISM 23 Feb 10:08:38 10:10:45 14° 266° (W) 10:12:52 437.425
UWE-3 23 Feb 10:14:28 10:15:38 11° 296° (WNW) 10:16:50 435.000/436.395/437.385
Tancredo 1 23 Feb 10:16:19 10:17:38 12° 336° (NNW) 10:18:57 437.200
YUBILEINY 23 Feb 10:22:40 10:31:15 59° 91° (E) 10:39:50 435.215
O/OREOS (USA 219) 23 Feb 10:49:17 10:50:16 11° 263° (W) 10:51:15 437.305
FO-29 23 Feb 10:50:53 10:57:32 55° 261° (W) 11:04:59 435.910
DUCHIFAT 1 23 Feb 10:53:10 10:57:02 38° 73° (ENE) 11:00:57 145.980
DELFI C3 23 Feb 10:55:05 10:57:45 18° 291° (WNW) 11:00:26 145.870
EO-79 23 Feb 11:00:52 11:04:58 58° 75° (ENE) 11:09:09 145.935-145.965
AIST 2D 23 Feb 11:01:28 11:04:59 74° 260° (W) 11:08:34 435.315
POLYITAN 1 23 Feb 11:17:30 11:21:43 86° 259° (WSW) 11:26:00 437.675
NANOSAT C BR1 23 Feb 11:19:17 11:23:29 90° 42° (NE) 11:27:44 145.865
QB50P2 23 Feb 11:20:24 11:24:36 74° 258° (WSW) 11:28:51 145.880/145.840
ESTCUBE 1 23 Feb 11:38:14 11:42:42 72° 102° (ESE) 11:47:08 437.505/2401.250
BUGSAT 1 23 Feb 11:59:40 12:03:41 79° 77° (ENE) 12:07:46 437.445
VELOX 1 23 Feb 12:13:49 12:18:10 55° 101° (E) 12:22:29 145.980
DX 1 23 Feb 12:13:51 12:17:15 22° 96° (E) 12:20:39 434.975-435.025
YUBILEINY 23 Feb 12:21:21 12:28:29 27° 289° (WNW) 12:35:39 435.215
DUCHIFAT 1 23 Feb 12:30:29 12:32:50 15° 267° (W) 12:35:11 145.980
UKube-1 23 Feb 12:30:34 12:34:05 24° 96° (E) 12:37:34 .
SPROUT 23 Feb 12:39:21 12:43:40 89° 288° (WNW) 12:47:59 437.525
Oscar 19 23 Feb 12:49:24 12:54:32 73° 75° (ENE) 12:59:40 437.125/150
50 SAT 23 Feb 12:58:22 13:01:43 48° 285° (WNW) 13:05:03 437.505
AO-7 23 Feb 13:01:53 13:06:26 16° 52° (NE) 13:10:59 .
Gurwin Techsat 1B 23 Feb 13:15:56 13:21:12 71° 75° (ENE) 13:26:30 435.225
ITAMSAT 1 23 Feb 13:21:14 13:23:40 13° 62° (ENE) 13:26:05 435.822/435.867
DX 1 23 Feb 13:49:42 13:53:22 27° 290° (WNW) 13:57:02 434.975-435.025
VELOX 1 23 Feb 13:52:22 13:54:06 12° 295° (WNW) 13:55:50 145.980
AO-85 23 Feb 13:58:37 14:02:31 71° 60° (ENE) 14:06:30 145.980
UKube-1 23 Feb 14:06:29 14:10:00 25° 291° (WNW) 14:13:30 .
Oscar 19 23 Feb 14:33:01 14:34:18 11° 269° (W) 14:35:34 437.125/150
ISS 23 Feb 14:36:38 14:39:00 18° 29° (NNE) 14:41:21 437.550
AO-7 23 Feb 14:49:32 14:57:53 79° 71° (ENE) 15:06:15 .
BEESAT 3 23 Feb 14:50:53 14:53:09 15° 48° (NE) 14:55:26 437.485
ITUPSAT 1 23 Feb 14:51:54 14:56:38 57° 101° (E) 15:01:19 437.325
ITAMSAT 1 23 Feb 14:57:19 15:02:29 69° 258° (WSW) 15:07:42 435.822/435.867
Gurwin Techsat 1B 23 Feb 14:59:42 15:01:35 12° 269° (W) 15:03:29 435.225
BEESAT 23 Feb 14:59:57 15:04:44 72° 102° (ESE) 15:09:29 436.000
Tancredo 1 23 Feb 15:07:14 15:10:10 31° 35° (NE) 15:13:05 437.200
PCSat 23 Feb 15:15:25 15:18:16 15° 103° (ESE) 15:21:08 145.827
BEESAT 2 23 Feb 15:24:20 15:26:30 14° 48° (NE) 15:28:39 435.950
MOZHAYETS 4 23 Feb 15:40:12 15:44:47 69° 101° (E) 15:49:21
ISS 23 Feb 16:12:28 16:15:39 47° 225° (SW) 16:18:47 437.550
KKS-1 23 Feb 16:26:45 16:31:07 52° 100° (E) 16:35:29 437.445
BEESAT 3 23 Feb 16:27:09 16:31:01 47° 245° (WSW) 16:34:50 437.485
ITUPSAT 1 23 Feb 16:31:31 16:33:56 14° 296° (WNW) 16:36:20 437.325
CUBESAT XI-V 23 Feb 16:33:57 16:38:14 37° 98° (E) 16:42:29 437.345
BEESAT 23 Feb 16:40:34 16:41:52 11° 297° (WNW) 16:43:09 436.000
M-CUBED/EXP-1 PRIME 23 Feb 16:42:35 16:44:47 15° 100° (E) 16:47:03 437.505
Tancredo 1 23 Feb 16:43:54 16:46:17 20° 231° (SW) 16:48:40 437.200
AO-7 23 Feb 16:45:49 16:51:19 19° 266° (W) 16:56:51 .
PCSat 23 Feb 16:55:42 17:01:03 63° 299° (WNW) 17:06:27 145.827
KAITUO 1B 23 Feb 16:59:15 17:01:53 18° 70° (ENE) 17:04:32 145.475/437.950
XW-2F 23 Feb 17:00:03 17:03:04 22° 71° (ENE) 17:06:05 145.980 - 146.000
RS-15 23 Feb 17:00:08 17:11:23 53° 109° (ESE) 17:23:05 29.354- 29.394
BEESAT 2 23 Feb 17:00:38 17:04:33 51° 245° (WSW) 17:08:28 435.950
XW-2D 23 Feb 17:03:10 17:06:22 26° 72° (ENE) 17:09:36 145.860 - 145.880
STARS 23 Feb 17:06:42 17:11:06 65° 102° (ESE) 17:15:30 437.465
XW-2B 23 Feb 17:08:02 17:11:21 28° 72° (ENE) 17:14:42 145.730 - 145.750
XW-2C 23 Feb 17:16:19 17:19:52 37° 73° (ENE) 17:23:26 145.795 - 145.815
MOZHAYETS 4 23 Feb 17:20:24 17:21:19 11° 296° (WNW) 17:22:13
DOVE 4 23 Feb 17:27:07 17:31:11 57° 75° (ENE) 17:35:15 437.250
CUTE-I 23 Feb 17:29:27 17:34:39 57° 73° (ENE) 17:39:54 437.470
LilacSat-2 23 Feb 17:30:37 17:34:25 61° 76° (ENE) 17:38:17 437.200
NUDT-PHONESAT 23 Feb 17:35:34 17:39:13 53° 75° (ENE) 17:42:55 437.300
HO-68 23 Feb 17:41:50 17:47:02 22° 61° (ENE) 17:52:13 435.675
XW-2A 23 Feb 17:50:17 17:51:30 12° 68° (ENE) 17:52:43 145.665 - 145.685
KKS-1 23 Feb 18:05:09 18:07:11 13° 295° (WNW) 18:09:14 437.445
CUBESAT XI-V 23 Feb 18:12:10 18:15:18 18° 292° (WNW) 18:18:23 437.345
M-CUBED/EXP-1 PRIME 23 Feb 18:15:47 18:19:14 35° 291° (WNW) 18:22:57 437.505
SEEDS 23 Feb 18:17:56 18:20:06 14° 67° (ENE) 18:22:16 437.485
KAITUO 1B 23 Feb 18:32:33 18:35:43 25° 264° (W) 18:38:54 145.475/437.950
XW-2F 23 Feb 18:34:13 18:37:07 20° 265° (W) 18:40:02 145.980 - 146.000
XW-2D 23 Feb 18:37:54 18:40:32 18° 266° (W) 18:43:11 145.860 - 145.880
XW-2B 23 Feb 18:43:10 18:45:34 16° 266° (W) 18:47:59 145.730 - 145.750
STARS 23 Feb 18:45:58 18:46:51 11° 296° (WNW) 18:47:45 437.465
CUBEBUG 2 23 Feb 18:48:20 18:51:39 21° 68° (ENE) 18:55:03 437.445
CUTE 1.7 + AOD 2 23 Feb 18:50:05 18:54:15 51° 74° (ENE) 18:58:24 437.475
XW-2C 23 Feb 18:52:36 18:54:12 12° 268° (W) 18:55:48 145.795 - 145.815
AO-73 23 Feb 19:10:49 19:12:39 12° 65° (ENE) 19:14:30 145.935
CUTE-I 23 Feb 19:12:00 19:15:01 15° 268° (W) 19:18:03 437.470
RS-15 23 Feb 19:12:43 19:24:02 46° 311° (NW) 19:35:49 29.354- 29.394
Oscar 11 23 Feb 19:19:51 19:21:56 13° 66° (ENE) 19:24:02 .
XW-2A 23 Feb 19:20:56 19:23:57 30° 262° (W) 19:27:00 145.665 - 145.685
STRAND 1 23 Feb 19:24:18 19:29:23 58° 101° (E) 19:34:26 437.568
HO-68 23 Feb 19:26:59 19:34:06 66° 257° (WSW) 19:41:15 435.675
UWE-3 23 Feb 19:29:07 19:33:10 37° 72° (ENE) 19:37:21 435.000/436.395/437.385
AAUSAT CUBESAT 2 23 Feb 19:46:21 19:50:30 75° 77° (ENE) 19:54:39 437.432
SEEDS 23 Feb 19:51:22 19:55:23 43° 261° (W) 19:59:26 437.485
ZACube-1 23 Feb 19:54:33 19:58:42 42° 73° (ENE) 20:02:58 437.345
DELFI C3 23 Feb 20:04:34 20:05:50 11° 67° (ENE) 20:07:07 145.870
CUBEBUG 2 23 Feb 20:24:14 20:28:03 30° 264° (W) 20:32:00 437.445
CUTE 1.7 + AOD 2 23 Feb 20:29:07 20:30:19 11° 269° (W) 20:31:32 437.475
YUBILEINY 23 Feb 20:37:25 20:44:12 24° 70° (ENE) 20:50:56 435.215
AO-73 23 Feb 20:44:01 20:48:19 55° 260° (W) 20:52:46 145.935
Oscar 11 23 Feb 20:53:25 20:57:37 48° 261° (W) 21:01:51 .
STRAND 1 23 Feb 21:05:05 21:08:02 15° 296° (WNW) 21:10:58 437.568
UWE-3 23 Feb 21:06:55 21:09:45 17° 267° (W) 21:12:38 435.000/436.395/437.385
UNISAT 6 23 Feb 21:26:41 21:30:08 20° 94° (E) 21:33:31 437.425
TIGRISAT 23 Feb 21:27:42 21:31:01 19° 94° (E) 21:34:16 435.000
ZACube-1 23 Feb 21:32:40 21:35:10 15° 268° (W) 21:37:42 437.345
RS-15 23 Feb 21:33:35 21:41:01 17° 342° (NNW) 21:48:32 29.354- 29.394
DELFI C3 23 Feb 21:36:22 21:40:11 46° 261° (W) 21:44:01 145.870
PRISM 23 Feb 21:50:22 21:54:26 85° 287° (WNW) 21:58:31 437.425
JUGNU 23 Feb 21:52:48 21:55:27 13° 170° (S) 21:58:07 437.505
FO-29 23 Feb 22:04:38 22:11:08 30° 93° (E) 22:17:04 435.910
SO-50 23 Feb 22:26:56 22:31:37 72° 117° (ESE) 22:36:15 436.795
YUBILEINY 23 Feb 22:33:00 22:41:34 64° 268° (W) 22:50:05 435.215
ESTCUBE 1 23 Feb 22:34:40 22:38:58 45° 73° (ENE) 22:43:16 437.505/2401.250
EO-79 23 Feb 22:50:26 22:52:01 12° 92° (E) 22:53:36 145.935-145.965
UNISAT 6 23 Feb 23:02:36 23:06:52 35° 289° (WNW) 23:11:05 437.425
TIGRISAT 23 Feb 23:03:26 23:07:45 37° 288° (WNW) 23:12:01 435.000
POLYITAN 1 23 Feb 23:06:03 23:09:08 19° 95° (E) 23:12:11 437.675
NANOSAT C BR1 23 Feb 23:07:25 23:10:19 18° 94° (E) 23:13:13 145.865
DX 1 23 Feb 23:07:45 23:10:00 14° 66° (ENE) 23:12:16 434.975-435.025
VELOX 1 23 Feb 23:08:19 23:12:14 33° 71° (ENE) 23:16:11 145.980
QB50P2 23 Feb 23:08:42 23:12:04 22° 95° (E) 23:15:23 145.880/145.840
O/OREOS (USA 219) 23 Feb 23:16:12 23:20:37 65° 292° (WNW) 23:25:06 437.305
UKube-1 23 Feb 23:23:18 23:25:43 15° 66° (ENE) 23:28:09 .
50 SAT 23 Feb 23:29:30 23:32:43 34° 73° (ENE) 23:35:55 437.505
